1999 CF9  

Epoch 1999 Feb. 11.0 TT = JDT 2451220.5                 Nakano

M 324.77577              (2000.0)            P               Q

n   0.41723990     Peri.   89.50035     -0.38643486     +0.92158385

a   1.7736945      Node   157.65610     -0.88000779     -0.35648217

e   0.5988475      Incl.    5.54891     -0.27614197     -0.15363487

P   2.36           H   17.3           G   0.15           U   *

Residuals in seconds of arc 

990212 704  0.0   0.8-    990214 900  0.1-  0.3+    990216 704  0.0   0.8-  

990212 704  0.7+  0.8-    990214 900  0.2+  0.0     990216 719  0.7-  0.5+  

990212 704  0.2+  0.7-    990215 744  1.3-  0.8+    990216 719  0.3-  0.3+  

990212 704 (3.3-  0.6-)   990215 744 (2.0+  3.7-)   990216 426  0.2-  0.0   

990212 704  0.8+  0.2-    990215 744  0.7-  1.4-    990216 426  0.2-  0.0   

990213 704  0.4+  0.2-    990215 732  0.4+  0.2+    990216 426  0.1-  0.1-  

990213 704  0.3-  0.5-    990215 732  0.3-  0.2+    990216 402  0.2+  0.4+  

990213 704  0.8+  0.1+    990215 732  0.2+  0.3+    990216 402  0.2+  0.7+  

990213 704  0.4+  0.7-    990215 670  0.3-  0.6+    990216 402  0.2+  0.5+  

990213 704  0.2+  0.8-    990215 658  0.5-  0.1-    990218 587  0.0   0.4-  

990213 422  0.2-  0.0     990215 670  0.2+  0.2+    990218 587  0.4+  0.1-  

990213 422  0.2-  0.0     990215 658  0.6-  0.0     990219 104  0.4+  0.9-  

990213 422  0.1-  0.1+    990215 658  0.7-  0.3+    990219 104  0.5-  0.4-  

990213 422  0.1-  0.1-    990215 428  1.2+  0.0     990219 104  0.4+  0.5-  

990214 758  0.4-  0.6+    990215 428  0.6+  0.5+    990219 719  0.4+  0.8-  

990214 758  0.5-  0.8+    990215 422  0.4+  0.4+    990219 719  0.2+  0.8-  

990214 758  0.4-  0.6+    990215 422  0.6+  0.5+    990219 402  0.1+  0.8-  

990214 758  0.2-  0.5+    990215 422  0.4+  0.5+    990219 402  0.0   0.7-  

990214 758  0.5-  0.6+    990215 428  0.1-  0.0     990219 402  0.0   0.8-  

990214 761  1.6-  0.6+    990215 428  0.8+  0.1+    990221 726  0.9-  0.2-  

990214 761  0.8-  0.2-    990215 151  0.9-  0.6+    990221 726  0.3-  0.6+  

990214 761  1.8+  0.3+    990215 151  0.3-  0.4-    990221 726  0.1-  0.5-  

990214 844  1.4+  0.4-    990215 151  0.7-  0.2-    990222 726  0.1+  0.4-  

990214 844  0.1-  0.2+    990215 151  0.5-  0.3+    990222 726  0.2+  0.3-  

990214 844  0.5+  0.1-    990215 557  0.2-  0.2+    990222 726  1.0+  0.2+  

990214 844  0.2+  0.3-    990215 557  0.3-  0.3+    990222 726  0.1-  0.9+  

990214 844  0.2+  0.2-    990215 557  0.1-  0.1+    990222 711  0.2+  0.1-  

990214 658  0.1-  0.1-    990215 046  0.1+  0.4+    990222 711  0.2+  0.0   

990214 658  0.2-  0.1+    990215 046  0.2+  0.2+    990224 046  0.4-  0.0   

990214 658  0.1-  0.0     990215 046  0.0   0.5+    990224 046  0.4-  0.4+  

990214 734  0.2-  0.8+    990215 046  0.3+  0.4+    990224 046  0.4+  0.0   

990214 734  0.1-  0.5+    990216 704 (2.9+  0.4+)   990224 046  0.2-  0.2+  

990214 422  0.1-  0.2-    990216 704  0.3-  0.4-    990225 402  0.1-  0.5+  

990214 422  0.0   0.1-    990216 704  0.1+  0.1-    990225 402  0.4+  0.2+  

990214 422  0.2+  0.1-    990216 704  0.1+  0.9-    990225 402  0.1+  0.3+  

 

1999 CF9  

Epoch 1999 Feb. 11.0 TT = JDT 2451220.5                 Nakano

M 325.23389              (2000.0)            P               Q

n   0.41212409     Peri.   89.63916     -0.38496142     +0.92218408

a   1.7883426      Node   157.60664     -0.88083511     -0.35508126

e   0.6033937      Incl.    5.59840     -0.27556165     -0.15327694

P   2.39           H   17.1           G   0.15           U   *



NAKANO

         **** Don't distribute anyone except personal use only ****

                (C) Copyright 1999 OAA/ComputingSection

write mail from CFAD0::NAKANO on 1999-02-22 04:51:07(JST).



1999 CF9  

Epoch 1999 Feb. 11.0 TT = JDT 2451220.5                 Nakano

M 324.73570              (2000.0)            P               Q

n   0.41742024     Peri.   89.55449     -0.38559289     +0.92193468

a   1.7731836      Node   157.65404     -0.88036569     -0.35568119

e   0.5988298      Incl.    5.55515     -0.27617817     -0.15338626

P   2.36           H   17.3           G   0.15           U   *

 

NAKANO

         **** Don't distribute anyone except personal use only ****

                (C) Copyright 1999 OAA/ComputingSection

write mail from CFAD0::NAKANO on 1999-02-18 06:28:22(JST).



–ß‚è‚Ü‚·B